カタログに戻る

CZ-3C DEB

LostGTO
NORAD 42466·DEBRIS·🇨🇳 China

打ち上げ Oct 31, 2010 から Xichang Satellite Launch Center

Loading…

TLE

古いSource: Space-Track

元期: May 1, 2019, 19:34 UTC

1 42466U 10057BF  19121.81527925 -.00000368  00000-0 -18714-2 0  9990
2 42466  20.6919 305.5417 7200207 285.3388  10.8191  2.18727697 30542

AllMySatでCZ-3C DEBをリアルタイム追跡

Download on the App Store